EN

Hourly Weather Alto Araguaia

Today, 19 January, Tuesday

Time Temperature Precipitation Wind Pressure Humidity
00:00 +23°C° 0.2 mm 1 mps 701 mmHg 90%
01:00 +23°C° 0.2 mm 1 mps 701 mmHg 92%
02:00 +22°C° 0 mm 1 mps 700 mmHg 94%
03:00 +22°C° 0.3 mm 1 mps 700 mmHg 94%
04:00 +22°C° 0.3 mm 1 mps 700 mmHg 94%
05:00 +22°C° 0.3 mm 1 mps 700 mmHg 94%
06:00 +23°C° 0.1 mm 1 mps 701 mmHg 90%
07:00 +25°C° 0.1 mm 1 mps 701 mmHg 85%
08:00 +26°C° 0.1 mm 2 mps 702 mmHg 81%
09:00 +27°C° 0.6 mm 2 mps 702 mmHg 76%
10:00 +28°C° 0.6 mm 3 mps 702 mmHg 72%
11:00 +29°C° 0.6 mm 3 mps 702 mmHg 68%
12:00 +29°C° 1.7 mm 3 mps 701 mmHg 69%
13:00 +29°C° 1.7 mm 3 mps 701 mmHg 71%
14:00 +29°C° 1.7 mm 3 mps 700 mmHg 72%
15:00 +28°C° 1.6 mm 3 mps 700 mmHg 75%
16:00 +28°C° 1.6 mm 3 mps 700 mmHg 79%
17:00 +27°C° 1.6 mm 2 mps 700 mmHg 82%
18:00 +26°C° 1.1 mm 2 mps 700 mmHg 85%
19:00 +25°C° 1.1 mm 1 mps 701 mmHg 87%
20:00 +24°C° 1.1 mm 1 mps 701 mmHg 89%
21:00 +24°C° 0.6 mm 1 mps 701 mmHg 89%
22:00 +24°C° 0.6 mm 1 mps 702 mmHg 89%
23:00 +23°C° 0.6 mm 1 mps 702 mmHg 89%

Tomorrow, 20 January, Wednesday

Time Temperature Precipitation Wind Pressure Humidity
00:00 +23°C° 0 mm 1 mps 701 mmHg 90%
01:00 +23°C° 0 mm 1 mps 701 mmHg 91%
02:00 +21°C° 0 mm 0 mps 701 mmHg 92%
03:00 +20°C° 0 mm 0 mps 701 mmHg 93%
04:00 +20°C° 0 mm 0 mps 701 mmHg 94%
05:00 +20°C° 0 mm 0 mps 701 mmHg 95%
06:00 +23°C° 0.2 mm 1 mps 701 mmHg 91%
07:00 +24°C° 0.2 mm 1 mps 702 mmHg 86%
08:00 +26°C° 0.2 mm 1 mps 702 mmHg 82%
09:00 +27°C° 1 mm 1 mps 702 mmHg 77%
10:00 +28°C° 1 mm 2 mps 702 mmHg 71%
11:00 +29°C° 1 mm 2 mps 702 mmHg 65%
12:00 +30°C° 1.1 mm 2 mps 701 mmHg 65%
13:00 +30°C° 1.1 mm 2 mps 701 mmHg 65%
14:00 +30°C° 1.1 mm 2 mps 700 mmHg 65%
15:00 +29°C° 1.1 mm 2 mps 700 mmHg 69%
16:00 +29°C° 1.1 mm 2 mps 700 mmHg 72%
17:00 +28°C° 1.1 mm 1 mps 699 mmHg 76%
18:00 +27°C° 1.6 mm 2 mps 700 mmHg 80%
19:00 +25°C° 1.6 mm 2 mps 700 mmHg 85%
20:00 +24°C° 1.6 mm 2 mps 700 mmHg 89%
21:00 +24°C° 0.4 mm 2 mps 701 mmHg 90%
22:00 +23°C° 0.4 mm 2 mps 701 mmHg 90%
23:00 +23°C° 0.4 mm 2 mps 701 mmHg 91%

Day after tomorrow, 21 January, Thursday

Time Temperature Precipitation Wind Pressure Humidity
00:00 +23°C° 0.1 mm 1 mps 701 mmHg 91%
01:00 +22°C° 0.1 mm 1 mps 700 mmHg 91%
02:00 +22°C° 0.1 mm 1 mps 700 mmHg 91%
03:00 +22°C° 0 mm 1 mps 700 mmHg 91%
04:00 +22°C° 0 mm 1 mps 700 mmHg 91%
05:00 +22°C° 0 mm 1 mps 700 mmHg 91%
06:00 +23°C° 0.2 mm 2 mps 701 mmHg 86%
07:00 +25°C° 0.2 mm 2 mps 702 mmHg 81%
08:00 +27°C° 0.2 mm 3 mps 703 mmHg 75%
09:00 +28°C° 0.3 mm 3 mps 702 mmHg 70%
10:00 +29°C° 0.3 mm 3 mps 702 mmHg 65%
11:00 +30°C° 0.3 mm 4 mps 702 mmHg 60%
12:00 +30°C° 0.4 mm 3 mps 702 mmHg 60%
13:00 +30°C° 0.4 mm 3 mps 701 mmHg 60%
14:00 +30°C° 0.4 mm 3 mps 701 mmHg 60%
15:00 +30°C° 1.3 mm 2 mps 701 mmHg 65%
16:00 +29°C° 1.3 mm 1 mps 700 mmHg 69%
17:00 +28°C° 1.3 mm 1 mps 700 mmHg 74%
18:00 +27°C° 0.6 mm 1 mps 701 mmHg 77%
19:00 +25°C° 0.6 mm 1 mps 701 mmHg 80%
20:00 +24°C° 0.6 mm 1 mps 701 mmHg 83%
21:00 +23°C° 0.3 mm 1 mps 701 mmHg 84%
22:00 +23°C° 0.3 mm 1 mps 702 mmHg 84%
23:00 +23°C° 0.3 mm 1 mps 702 mmHg 85%

22 January, Friday

Time Temperature Precipitation Wind Pressure Humidity
00:00 +23°C° 0.1 mm 1 mps 702 mmHg 85%
01:00 +22°C° 0.1 mm 1 mps 701 mmHg 86%
02:00 +22°C° 0.1 mm 1 mps 701 mmHg 87%
03:00 +22°C° 0 mm 1 mps 701 mmHg 87%
04:00 +22°C° 0 mm 1 mps 702 mmHg 87%
05:00 +22°C° 0 mm 1 mps 702 mmHg 87%
06:00 +24°C° 0 mm 1 mps 702 mmHg 83%
07:00 +25°C° 0 mm 2 mps 703 mmHg 79%
08:00 +26°C° 0 mm 2 mps 704 mmHg 75%
09:00 +28°C° 0.1 mm 3 mps 704 mmHg 68%
10:00 +29°C° 0.1 mm 3 mps 704 mmHg 61%
11:00 +31°C° 0.1 mm 3 mps 703 mmHg 54%
12:00 +31°C° 0 mm 3 mps 703 mmHg 52%
13:00 +33°C° 0 mm 3 mps 703 mmHg 50%
14:00 +32°C° 0 mm 2 mps 702 mmHg 48%
15:00 +31°C° 0 mm 2 mps 702 mmHg 54%
16:00 +30°C° 0 mm 1 mps 702 mmHg 60%
17:00 +29°C° 0 mm 1 mps 701 mmHg 65%
18:00 +28°C° 0.6 mm 1 mps 702 mmHg 70%
19:00 +26°C° 0.6 mm 1 mps 702 mmHg 75%
20:00 +24°C° 0.6 mm 1 mps 702 mmHg 80%
21:00 +24°C° 0.2 mm 1 mps 702 mmHg 82%
22:00 +23°C° 0.2 mm 1 mps 703 mmHg 83%
23:00 +23°C° 0.2 mm 1 mps 703 mmHg 84%

23 January, Saturday

Time Temperature Precipitation Wind Pressure Humidity
00:00 +23°C° 0 mm 1 mps 702 mmHg 85%
01:00 +20°C° 0 mm 0 mps 702 mmHg 86%
02:00 +20°C° 0 mm 0 mps 702 mmHg 86%
03:00 +20°C° 0.1 mm 0 mps 702 mmHg 88%
04:00 +22°C° 0.1 mm 1 mps 702 mmHg 89%
05:00 +21°C° 0.1 mm 1 mps 702 mmHg 90%
06:00 +23°C° 0 mm 1 mps 703 mmHg 85%
07:00 +25°C° 0 mm 1 mps 703 mmHg 81%
08:00 +26°C° 0 mm 2 mps 704 mmHg 76%
09:00 +28°C° 0 mm 2 mps 704 mmHg 69%
10:00 +29°C° 0 mm 2 mps 704 mmHg 63%
11:00 +31°C° 0 mm 3 mps 704 mmHg 56%
12:00 +31°C° 0.2 mm 2 mps 703 mmHg 56%
13:00 +31°C° 0.2 mm 2 mps 702 mmHg 55%
14:00 +31°C° 0.2 mm 2 mps 702 mmHg 54%
15:00 +30°C° 2 mm 2 mps 701 mmHg 62%
16:00 +29°C° 2 mm 1 mps 701 mmHg 71%
17:00 +28°C° 2 mm 1 mps 701 mmHg 79%
18:00 +27°C° 2.3 mm 1 mps 701 mmHg 80%
19:00 +25°C° 2.3 mm 1 mps 701 mmHg 82%
20:00 +24°C° 2.3 mm 1 mps 702 mmHg 84%
21:00 +24°C° 0.4 mm 1 mps 702 mmHg 85%
22:00 +24°C° 0.4 mm 1 mps 702 mmHg 86%
23:00 +24°C° 0.4 mm 1 mps 702 mmHg 87%

24 January, Sunday

Time Temperature Precipitation Wind Pressure Humidity
00:00 +23°C° 0 mm 1 mps 702 mmHg 87%
01:00 +23°C° 0 mm 1 mps 701 mmHg 88%
02:00 +23°C° 0 mm 1 mps 701 mmHg 89%
03:00 +22°C° 0 mm 1 mps 701 mmHg 89%
04:00 +22°C° 0 mm 1 mps 701 mmHg 90%
05:00 +22°C° 0 mm 1 mps 701 mmHg 90%
06:00 +23°C° 0 mm 1 mps 701 mmHg 86%
07:00 +25°C° 0 mm 2 mps 702 mmHg 82%
08:00 +26°C° 0 mm 2 mps 702 mmHg 78%
09:00 +27°C° 0.6 mm 3 mps 702 mmHg 74%
10:00 +28°C° 0.6 mm 3 mps 702 mmHg 69%
11:00 +29°C° 0.6 mm 4 mps 702 mmHg 65%
12:00 +30°C° 0.4 mm 3 mps 702 mmHg 63%
13:00 +30°C° 0.4 mm 3 mps 701 mmHg 60%
14:00 +31°C° 0.4 mm 3 mps 701 mmHg 57%
15:00 +30°C° 1 mm 2 mps 700 mmHg 64%
16:00 +29°C° 1 mm 1 mps 700 mmHg 70%
17:00 +28°C° 1 mm 1 mps 699 mmHg 77%
18:00 +27°C° 0.5 mm 1 mps 700 mmHg 79%
19:00 +26°C° 0.5 mm 1 mps 700 mmHg 81%
20:00 +24°C° 0.5 mm 1 mps 700 mmHg 83%
21:00 +24°C° 1.4 mm 1 mps 700 mmHg 86%
22:00 +24°C° 1.4 mm 1 mps 701 mmHg 88%
23:00 +23°C° 1.4 mm 1 mps 701 mmHg 90%
Show more